DELTA 1 DEB, 21678

Orbit data source: Space-Track

DELTA 1 DEB, 21678 is space debris in SSO originally from a launch on Thu, 12 Jun 1975 UTC launched from the Air Force Western Test Range (AFWTR). Debris objects in space refer to the collection of defunct objects orbiting the Earth. Examples of debris include non-operational satellites, rocket bodies, and fragments generated from explosions, collisions, or faulty payload assembly.

Loading next visibility...
Identifier
21678, 1975-052JE
Orbit
SSO
Country
Flag of USUS
Related business
Manufacturer
Unknown
Mission
Spacecraft
Bus & Motor
Unknown
Mass
Unknown
Launch date (UTC)
1975-06-12 (51 years ago)
Launch vehicle
Unknown
Launch site
Air Force Western Test Range (AFWTR)
Object type
Payload
Rocket body
Debris
Shape & HBR
Unknown shape, 0.1 m
Radar Cross Section
Small (<0.1 m²)

Expand to show TLE details & history
Last TLE update: 1 day ago

TLE from 1 day ago
0 DELTA 1 DEB
1 21678U 75052JE  25353.27399029  .00001715  00000-0  31452-2 0  9993
2 21678 100.0237 265.6742 0359936   3.9261 146.4243 13.19470955652772
Epoch: 2025-12-19T06:34Z
TLE epoch observation values (Epoch: 2025-12-19T06:34:32.761Z)
Latitude
27.03375°
Longitude
-95.9306°
Altitude
1,419.655 km
Speed
7.044 km/s
True Right ascension
06h 03m 17s
True Declination
26° 54' 24"
Sunlit
Object was in full shadow at epoch
Visualization orbit readout
Latitude
Unknown
Longitude
Unknown
Altitude
Unknown
Speed
Unknown
Apparent Right ascension
Unknown
Apparent Declination
Unknown
Sunlit
N/A
Visualization observer readout
Local Sidereal Time
10:43:44
Azimuth
Unknown
Elevation
Unknown
Doppler factor
Unknown
Orbital elements
Apogee altitude
1,456.287 km
Perigee altitude
911.903 km
Semi-major axis
7,562.232 km
Eccentricity
0.03599
Inclination
100.0237°
RAAN
265.6742°
Arg. of periapsis
3.9261°
True anomaly
148.62228°
Mean anomaly
146.4243°
Eccentric anomaly
147.53141°
Mean motion
3.30041 °/min
Orbital period
109.08 mins
BSTAR
0.0031452
Loading maneuver chart data...
Computing Atmospheric mass density...
Loading historical data...
Loading historical data...
Loading historical data...
Loading historical data...
Loading historical data...
Loading historical data...
Loading historical data...

Documentation

Showing up to 5 results
|